Time,TemperatureF,DewpointF,PressureIn,WindDirection,WindDirectionDegrees,WindSpeedMPH,WindSpeedGustMPH,Humidity,HourlyPrecipIn,Conditions,Clouds,dailyrainin,SoftwareType,DateUTC
2013-05-01 00:01:00,57.1,48.5,30.01,ESE,118,0.0,0.0,73,0.00,RA,,0.00,WeatherDisplay:10.37,2013-05-01 04:01:00,
2013-05-01 00:02:00,57.1,48.5,30.01,ESE,118,0.0,0.0,73,0.00,RA,,0.00,WeatherDisplay:10.37,2013-05-01 04:02:00,
2013-05-01 00:03:00,57.1,48.2,30.01,ESE,118,0.0,0.0,72,0.00,RA,,0.00,WeatherDisplay:10.37,2013-05-01 04:03:00,
2013-05-01 00:06:00,57.0,48.1,30.01,ESE,118,0.0,0.0,72,0.00,RA,,0.00,WeatherDisplay:10.37,2013-05-01 04:06:00,
2013-05-01 00:11:00,57.1,48.2,30.01,ESE,118,0.0,0.0,72,0.00,CLR,,0.00,WeatherDisplay:10.37,2013-05-01 04:11:00,
2013-05-01 00:16:00,57.3,48.3,30.01,ESE,118,0.0,0.0,72,0.00,CLR,,0.00,WeatherDisplay:10.37,2013-05-01 04:16:00,
2013-05-01 00:21:00,56.5,47.6,30.02,ESE,118,0.0,0.0,72,0.00,CLR,,0.00,WeatherDisplay:10.37,2013-05-01 04:21:00,
2013-05-01 00:26:00,55.4,47.6,30.02,ESE,118,0.0,0.0,75,0.00,CLR,,0.00,WeatherDisplay:10.37,2013-05-01 04:26:00,
2013-05-01 00:31:00,54.5,47.1,30.02,ESE,118,0.0,0.0,76,0.00,CLR,,0.00,WeatherDisplay:10.37,2013-05-01 04:31:00,
2013-05-01 00:36:00,53.8,47.4,30.02,ESE,118,0.0,0.0,79,0.00,CLR,,0.00,WeatherDisplay:10.37,2013-05-01 04:36:00,
2013-05-01 00:41:00,53.7,47.7,30.03,ESE,118,0.0,0.0,80,0.00,CLR,,0.00,WeatherDisplay:10.37,2013-05-01 04:41:00,
2013-05-01 00:46:00,53.5,47.1,30.03,ESE,118,0.0,0.0,79,0.00,CLR,,0.00,WeatherDisplay:10.37,2013-05-01 04:46:00,
2013-05-01 00:51:00,53.9,47.5,30.03,ESE,118,0.0,0.0,79,0.00,CLR,,0.00,WeatherDisplay:10.37,2013-05-01 04:51:00,
2013-05-01 00:56:00,55.6,47.8,30.03,ESE,118,0.0,0.0,75,0.00,CLR,,0.00,WeatherDisplay:10.37,2013-05-01 04:56:00,
2013-05-01 01:01:00,55.7,47.5,30.03,ESE,118,0.0,0.0,74,0.00,CLR,,0.00,WeatherDisplay:10.37,2013-05-01 05:01:00,
2013-05-01 01:06:00,55.6,47.4,30.04,ESE,118,0.0,0.0,74,0.00,CLR,,0.00,WeatherDisplay:10.37,2013-05-01 05:06:00,
2013-05-01 01:11:00,55.5,47.3,30.04,ESE,118,0.0,0.0,74,0.00,CLR,,0.00,WeatherDisplay:10.37,2013-05-01 05:11:00,
2013-05-01 01:16:00,56.0,47.5,30.04,ESE,123,2.3,2.3,73,0.00,CLR,,0.00,WeatherDisplay:10.37,2013-05-01 05:16:00,
2013-05-01 01:21:00,54.6,46.8,30.04,ESE,123,0.0,0.0,75,0.00,CLR,,0.00,WeatherDisplay:10.37,2013-05-01 05:21:00,
2013-05-01 01:26:00,54.9,47.5,30.05,ESE,123,0.0,0.0,76,0.00,CLR,,0.00,WeatherDisplay:10.37,2013-05-01 05:26:00,
2013-05-01 01:31:00,55.1,47.0,30.05,ESE,123,2.3,2.3,74,0.00,CLR,,0.00,WeatherDisplay:10.37,2013-05-01 05:31:00,
2013-05-01 01:36:00,55.8,47.3,30.05,SSE,165,6.0,6.0,73,0.00,CLR,,0.00,WeatherDisplay:10.37,2013-05-01 05:36:00,
2013-05-01 01:41:00,55.5,46.6,30.05,SSE,165,4.0,4.0,72,0.00,CLR,,0.00,WeatherDisplay:10.37,2013-05-01 05:41:00,
2013-05-01 01:46:00,55.0,46.5,30.05,SE,134,0.0,0.0,73,0.00,CLR,,0.00,WeatherDisplay:10.37,2013-05-01 05:46:00,
2013-05-01 01:51:00,54.2,46.1,30.06,SE,134,0.0,0.0,74,0.00,CLR,,0.00,WeatherDisplay:10.37,2013-05-01 05:51:00,
2013-05-01 01:56:00,54.3,46.2,30.05,SE,134,2.3,2.3,74,0.00,CLR,,0.00,WeatherDisplay:10.37,2013-05-01 05:56:00,
2013-05-01 02:01:00,53.9,46.2,30.05,ESE,121,4.0,4.0,75,0.00,CLR,,0.00,WeatherDisplay:10.37,2013-05-01 06:01:00,
2013-05-01 02:06:00,53.7,46.0,30.05,ESE,110,5.0,5.0,75,0.00,CLR,,0.00,WeatherDisplay:10.37,2013-05-01 06:06:00,
2013-05-01 02:11:00,53.9,45.8,30.06,SE,132,7.0,7.0,74,0.00,CLR,,0.00,WeatherDisplay:10.37,2013-05-01 06:11:00,
2013-05-01 02:16:00,54.1,45.6,30.06,SE,125,3.5,3.5,73,0.00,CLR,,0.00,WeatherDisplay:10.37,2013-05-01 06:16:00,
2013-05-01 02:21:00,53.1,45.0,30.06,SE,125,3.5,3.5,74,0.00,CLR,,0.00,WeatherDisplay:10.37,2013-05-01 06:21:00,
2013-05-01 02:26:00,52.7,44.6,30.06,SE,125,2.3,2.3,74,0.00,CLR,,0.00,WeatherDisplay:10.37,2013-05-01 06:26:00,
2013-05-01 02:31:00,53.3,44.9,30.06,SE,125,2.0,2.0,73,0.00,CLR,,0.00,WeatherDisplay:10.37,2013-05-01 06:31:00,
2013-05-01 02:36:00,54.0,44.8,30.06,SE,125,1.2,1.2,71,0.00,CLR,,0.00,WeatherDisplay:10.37,2013-05-01 06:36:00,
2013-05-01 02:41:00,54.1,44.2,30.06,SE,125,3.5,3.5,69,0.00,CLR,,0.00,WeatherDisplay:10.37,2013-05-01 06:41:00,
2013-05-01 02:46:00,53.5,43.6,30.06,SE,131,4.6,4.6,69,0.00,CLR,,0.00,WeatherDisplay:10.37,2013-05-01 06:46:00,
2013-05-01 02:51:00,53.3,43.4,30.06,ESE,106,4.0,4.0,69,0.00,CLR,,0.00,WeatherDisplay:10.37,2013-05-01 06:51:00,
2013-05-01 02:56:00,53.1,43.2,30.06,ESE,117,5.0,5.0,69,0.00,CLR,,0.00,WeatherDisplay:10.37,2013-05-01 06:56:00,
2013-05-01 03:01:00,53.2,42.9,30.06,ESE,107,5.0,5.0,68,0.00,CLR,,0.00,WeatherDisplay:10.37,2013-05-01 07:01:00,
2013-05-01 03:06:00,53.6,42.9,30.07,SE,127,9.2,9.2,67,0.00,CLR,,0.00,WeatherDisplay:10.37,2013-05-01 07:06:00,
2013-05-01 03:11:00,53.8,42.7,30.07,SE,133,3.5,3.5,66,0.00,CLR,,0.00,WeatherDisplay:10.37,2013-05-01 07:11:00,
2013-05-01 03:16:00,53.4,42.3,30.07,SE,133,0.0,0.0,66,0.00,CLR,,0.00,WeatherDisplay:10.37,2013-05-01 07:16:00,
2013-05-01 03:21:00,52.4,42.1,30.07,SE,142,3.5,3.5,68,0.00,CLR,,0.00,WeatherDisplay:10.37,2013-05-01 07:21:00,
2013-05-01 03:26:00,52.0,42.1,30.07,ESE,119,3.5,3.5,69,0.00,CLR,,0.00,WeatherDisplay:10.37,2013-05-01 07:26:00,
2013-05-01 03:31:00,51.7,41.9,30.07,ESE,119,2.3,2.3,69,0.00,CLR,,0.00,WeatherDisplay:10.37,2013-05-01 07:31:00,
2013-05-01 03:36:00,51.9,41.7,30.07,ESE,119,4.0,4.0,68,0.00,CLR,,0.00,WeatherDisplay:10.37,2013-05-01 07:36:00,
2013-05-01 03:41:00,51.9,41.3,30.08,ESE,119,4.0,4.0,67,0.00,CLR,,0.00,WeatherDisplay:10.37,2013-05-01 07:41:00,
2013-05-01 03:46:00,52.3,41.7,30.08,ESE,109,4.0,4.0,67,0.00,CLR,,0.00,WeatherDisplay:10.37,2013-05-01 07:46:00,
2013-05-01 03:51:00,52.6,41.2,30.07,ESE,110,4.0,4.0,65,0.00,CLR,,0.00,WeatherDisplay:10.37,2013-05-01 07:51:00,
2013-05-01 03:56:00,52.8,41.0,30.07,ESE,105,3.5,3.5,64,0.00,CLR,,0.00,WeatherDisplay:10.37,2013-05-01 07:56:00,
2013-05-01 04:01:00,53.2,40.9,30.08,ESE,109,0.0,0.0,63,0.00,CLR,,0.00,WeatherDisplay:10.37,2013-05-01 08:01:00,
2013-05-01 04:06:00,53.4,40.7,30.08,ESE,109,1.2,1.2,62,0.00,CLR,,0.00,WeatherDisplay:10.37,2013-05-01 08:06:00,
2013-05-01 04:11:00,53.7,40.6,30.08,ESE,109,2.3,2.3,61,0.00,CLR,,0.00,WeatherDisplay:10.37,2013-05-01 08:11:00,
2013-05-01 04:16:00,53.3,40.2,30.08,ESE,109,3.5,3.5,61,0.00,CLR,,0.00,WeatherDisplay:10.37,2013-05-01 08:16:00,
2013-05-01 04:21:00,53.3,40.2,30.08,East,88,5.0,5.0,61,0.00,CLR,,0.00,WeatherDisplay:10.37,2013-05-01 08:21:00,
2013-05-01 04:26:00,53.4,40.3,30.07,ENE,77,4.6,4.6,61,0.00,CLR,,0.00,WeatherDisplay:10.37,2013-05-01 08:26:00,
2013-05-01 04:31:00,53.3,40.6,30.08,ENE,71,3.5,3.5,62,0.00,CLR,,0.00,WeatherDisplay:10.37,2013-05-01 08:31:00,
2013-05-01 04:36:00,53.3,40.6,30.08,ENE,71,5.0,5.0,62,0.00,CLR,,0.00,WeatherDisplay:10.37,2013-05-01 08:36:00,
2013-05-01 04:41:00,53.3,40.6,30.08,ENE,76,3.5,3.5,62,0.00,CLR,,0.00,WeatherDisplay:10.37,2013-05-01 08:41:00,
2013-05-01 04:46:00,53.3,40.6,30.08,ENE,69,3.5,3.5,62,0.00,CLR,,0.00,WeatherDisplay:10.37,2013-05-01 08:46:00,
2013-05-01 04:51:00,53.2,40.5,30.08,East,85,5.0,5.0,62,0.00,CLR,,0.00,WeatherDisplay:10.37,2013-05-01 08:51:00,
2013-05-01 04:56:00,53.0,40.7,30.08,East,82,3.5,3.5,63,0.00,CLR,,0.00,WeatherDisplay:10.37,2013-05-01 08:56:00,
2013-05-01 05:01:00,52.9,40.6,30.08,ENE,74,3.5,3.5,63,0.00,CLR,,0.00,WeatherDisplay:10.37,2013-05-01 09:01:00,
2013-05-01 05:06:00,52.5,40.7,30.08,ENE,75,4.6,4.6,64,0.00,CLR,,0.00,WeatherDisplay:10.37,2013-05-01 09:06:00,
2013-05-01 05:11:00,52.1,41.1,30.08,East,86,5.0,5.0,66,0.00,CLR,,0.00,WeatherDisplay:10.37,2013-05-01 09:11:00,
2013-05-01 05:16:00,51.9,41.3,30.08,East,85,2.3,2.3,67,0.00,CLR,,0.00,WeatherDisplay:10.37,2013-05-01 09:16:00,
2013-05-01 05:21:00,51.5,40.9,30.08,East,83,5.8,5.8,67,0.00,CLR,,0.00,WeatherDisplay:10.37,2013-05-01 09:21:00,
2013-05-01 05:26:00,51.5,40.9,30.08,East,88,5.0,5.0,67,0.00,CLR,,0.00,WeatherDisplay:10.37,2013-05-01 09:26:00,
2013-05-01 05:31:00,51.5,40.9,30.09,East,87,1.0,0.0,67,0.00,CLR,,0.00,WeatherDisplay:10.37,2013-05-01 09:31:00,
2013-05-01 05:36:00,50.8,41.0,30.09,East,87,0.0,0.0,69,0.00,CLR,,0.00,WeatherDisplay:10.37,2013-05-01 09:36:00,
2013-05-01 05:41:00,49.6,40.9,30.09,East,87,0.0,0.0,72,0.00,CLR,,0.00,WeatherDisplay:10.37,2013-05-01 09:41:00,
2013-05-01 05:46:00,48.4,41.2,30.10,East,87,0.0,0.0,76,0.00,CLR,,0.00,WeatherDisplay:10.37,2013-05-01 09:46:00,
2013-05-01 05:51:00,48.4,41.2,30.10,East,87,0.0,0.0,76,0.00,CLR,,0.00,WeatherDisplay:10.37,2013-05-01 09:51:00,
2013-05-01 05:56:00,49.2,40.9,30.10,East,87,3.5,3.5,73,0.00,CLR,,0.00,WeatherDisplay:10.37,2013-05-01 09:56:00,
2013-05-01 06:01:00,49.6,40.6,30.10,East,80,3.5,3.5,71,0.00,CLR,,0.00,WeatherDisplay:10.37,2013-05-01 10:01:00,
2013-05-01 06:06:00,49.9,40.1,30.10,East,79,3.5,3.5,69,0.00,CLR,,0.00,WeatherDisplay:10.37,2013-05-01 10:06:00,
2013-05-01 06:11:00,49.9,40.1,30.10,ENE,69,4.6,4.6,69,0.00,CLR,,0.00,WeatherDisplay:10.37,2013-05-01 10:11:00,
2013-05-01 06:16:00,50.0,39.5,30.11,East,82,4.6,4.6,67,0.00,CLR,,0.00,WeatherDisplay:10.37,2013-05-01 10:16:00,
2013-05-01 06:21:00,50.1,39.6,30.11,East,83,5.0,5.0,67,0.00,CLR,,0.00,WeatherDisplay:10.37,2013-05-01 10:21:00,
2013-05-01 06:26:00,50.1,39.6,30.11,East,80,3.5,3.5,67,0.00,CLR,,0.00,WeatherDisplay:10.37,2013-05-01 10:26:00,
2013-05-01 06:31:00,50.0,40.2,30.11,East,93,5.0,5.0,69,0.00,CLR,,0.00,WeatherDisplay:10.37,2013-05-01 10:31:00,
2013-05-01 06:36:00,49.9,40.1,30.11,East,87,3.5,3.5,69,0.00,CLR,,0.00,WeatherDisplay:10.37,2013-05-01 10:36:00,
2013-05-01 06:41:00,50.3,39.8,30.12,East,92,4.6,4.6,67,0.00,CLR,,0.00,WeatherDisplay:10.37,2013-05-01 10:41:00,
2013-05-01 06:46:00,50.6,39.7,30.12,ENE,77,3.5,3.5,66,0.00,CLR,,0.00,WeatherDisplay:10.37,2013-05-01 10:46:00,
2013-05-01 06:51:00,50.8,39.1,30.12,East,86,5.0,5.0,64,0.00,CLR,,0.00,WeatherDisplay:10.37,2013-05-01 10:51:00,
2013-05-01 06:56:00,50.8,41.0,30.12,East,86,0.0,0.0,69,0.00,CLR,,0.00,WeatherDisplay:10.37,2013-05-01 10:56:00,
2013-05-01 07:01:00,50.3,42.0,30.12,East,86,0.0,0.0,73,0.00,CLR,,0.00,WeatherDisplay:10.37,2013-05-01 11:01:00,
2013-05-01 07:06:00,50.0,42.0,30.12,East,86,2.3,2.3,74,0.00,CLR,,0.00,WeatherDisplay:10.37,2013-05-01 11:06:00,
2013-05-01 07:11:00,50.2,42.2,30.13,East,86,1.2,1.2,74,0.00,CLR,,0.00,WeatherDisplay:10.37,2013-05-01 11:11:00,
2013-05-01 07:16:00,51.1,40.9,30.13,East,85,3.5,3.5,68,0.00,CLR,,0.00,WeatherDisplay:10.37,2013-05-01 11:16:00,
2013-05-01 07:21:00,51.9,41.3,30.13,East,86,4.6,4.6,67,0.00,CLR,,0.00,WeatherDisplay:10.37,2013-05-01 11:21:00,
2013-05-01 07:26:00,52.3,40.9,30.13,ENE,71,9.2,9.2,65,0.00,CLR,,0.00,WeatherDisplay:10.37,2013-05-01 11:26:00,
2013-05-01 07:31:00,52.5,41.1,30.13,East,81,8.1,8.1,65,0.00,CLR,,0.00,WeatherDisplay:10.37,2013-05-01 11:31:00,
2013-05-01 07:36:00,52.8,41.4,30.14,ENE,71,8.1,8.1,65,0.00,CLR,,0.00,WeatherDisplay:10.37,2013-05-01 11:36:00,
2013-05-01 07:41:00,53.2,41.3,30.14,East,84,4.6,4.6,64,0.00,CLR,,0.00,WeatherDisplay:10.37,2013-05-01 11:41:00,
2013-05-01 07:46:00,53.5,41.2,30.14,ENE,69,5.8,5.8,63,0.00,CLR,,0.00,WeatherDisplay:10.37,2013-05-01 11:46:00,
2013-05-01 07:51:00,53.8,41.1,30.14,ENE,78,3.5,3.5,62,0.00,CLR,,0.00,WeatherDisplay:10.37,2013-05-01 11:51:00,
2013-05-01 07:56:00,54.4,41.6,30.14,East,96,6.0,6.0,62,0.00,CLR,,0.00,WeatherDisplay:10.37,2013-05-01 11:56:00,
2013-05-01 08:01:00,54.8,41.6,30.15,East,100,4.6,4.6,61,0.00,CLR,,0.00,WeatherDisplay:10.37,2013-05-01 12:01:00,
2013-05-01 08:06:00,55.1,41.5,30.14,ENE,75,3.5,3.5,60,0.00,CLR,,0.00,WeatherDisplay:10.37,2013-05-01 12:06:00,
2013-05-01 08:11:00,55.7,41.1,30.15,ENE,77,5.8,5.8,58,0.00,CLR,,0.00,WeatherDisplay:10.37,2013-05-01 12:11:00,
2013-05-01 08:16:00,56.1,41.1,30.15,East,92,8.1,8.1,57,0.00,CLR,,0.00,WeatherDisplay:10.37,2013-05-01 12:16:00,
2013-05-01 08:21:00,56.5,41.4,30.15,ENE,65,4.0,4.0,57,0.00,CLR,,0.00,WeatherDisplay:10.37,2013-05-01 12:21:00,
2013-05-01 08:26:00,56.8,40.8,30.15,East,98,6.9,6.9,55,0.00,CLR,,0.00,WeatherDisplay:10.37,2013-05-01 12:26:00,
2013-05-01 08:31:00,57.2,42.1,30.15,ENE,78,7.0,7.0,57,0.00,CLR,,0.00,WeatherDisplay:10.37,2013-05-01 12:31:00,
2013-05-01 08:36:00,57.6,42.5,30.15,East,90,6.9,6.9,57,0.00,CLR,,0.00,WeatherDisplay:10.37,2013-05-01 12:36:00,
2013-05-01 08:41:00,57.7,41.2,30.15,East,86,8.1,8.1,54,0.00,CLR,,0.00,WeatherDisplay:10.37,2013-05-01 12:41:00,
2013-05-01 08:46:00,58.2,41.1,30.15,ENE,77,7.0,7.0,53,0.00,CLR,,0.00,WeatherDisplay:10.37,2013-05-01 12:46:00,
2013-05-01 08:51:00,58.6,40.5,30.15,East,88,5.8,5.8,51,0.00,CLR,,0.00,WeatherDisplay:10.37,2013-05-01 12:51:00,
2013-05-01 08:56:00,59.1,39.9,30.15,East,98,9.2,9.2,49,0.00,CLR,,0.00,WeatherDisplay:10.37,2013-05-01 12:56:00,
2013-05-01 09:01:00,59.6,39.9,30.15,East,91,5.8,5.8,48,0.00,CLR,,0.00,WeatherDisplay:10.37,2013-05-01 13:01:00,
2013-05-01 09:06:00,59.8,39.5,30.15,ENE,78,8.1,8.1,47,0.00,CLR,,0.00,WeatherDisplay:10.37,2013-05-01 13:06:00,
2013-05-01 09:11:00,59.9,37.9,30.15,East,87,8.1,8.1,44,0.00,CLR,,0.00,WeatherDisplay:10.37,2013-05-01 13:11:00,
2013-05-01 09:16:00,60.0,36.8,30.15,ENE,76,8.1,8.1,42,0.00,CLR,,0.00,WeatherDisplay:10.37,2013-05-01 13:16:00,
2013-05-01 09:21:00,60.5,37.9,30.15,East,97,9.0,9.0,43,0.00,CLR,,0.00,WeatherDisplay:10.37,2013-05-01 13:21:00,
2013-05-01 09:26:00,60.5,39.0,30.15,ENE,68,4.6,4.6,45,0.00,CLR,,0.00,WeatherDisplay:10.37,2013-05-01 13:26:00,
2013-05-01 09:31:00,61.1,39.6,30.15,ESE,109,8.0,8.0,45,0.00,CLR,,0.00,WeatherDisplay:10.37,2013-05-01 13:31:00,
2013-05-01 09:36:00,61.1,39.0,30.15,East,94,8.0,8.0,44,0.00,CLR,,0.00,WeatherDisplay:10.37,2013-05-01 13:36:00,
2013-05-01 09:41:00,61.5,37.6,30.15,East,89,8.1,8.1,41,0.00,CLR,,0.00,WeatherDisplay:10.37,2013-05-01 13:41:00,
2013-05-01 09:46:00,61.8,37.8,30.15,ENE,78,5.0,5.0,41,0.00,CLR,,0.00,WeatherDisplay:10.37,2013-05-01 13:46:00,
2013-05-01 09:51:00,62.0,41.0,30.15,East,83,4.6,4.6,46,0.00,CLR,,0.00,WeatherDisplay:10.37,2013-05-01 13:51:00,
2013-05-01 09:56:00,62.5,40.3,30.15,East,94,7.0,7.0,44,0.00,CLR,,0.00,WeatherDisplay:10.37,2013-05-01 13:56:00,
2013-05-01 10:01:00,62.4,39.0,30.15,NE,53,4.0,4.0,42,0.00,CLR,,0.00,WeatherDisplay:10.37,2013-05-01 14:01:00,
2013-05-01 10:06:00,62.9,37.5,30.15,ENE,70,3.5,3.5,39,0.00,CLR,,0.00,WeatherDisplay:10.37,2013-05-01 14:06:00,
2013-05-01 10:11:00,63.4,40.5,30.15,ENE,77,5.0,5.0,43,0.00,CLR,,0.00,WeatherDisplay:10.37,2013-05-01 14:11:00,
2013-05-01 10:16:00,63.3,38.6,30.15,East,91,2.3,2.3,40,0.00,CLR,,0.00,WeatherDisplay:10.37,2013-05-01 14:16:00,
2013-05-01 10:21:00,63.7,36.2,30.15,SE,126,3.5,3.5,36,0.00,CLR,,0.00,WeatherDisplay:10.37,2013-05-01 14:21:00,
2013-05-01 10:26:00,63.7,36.2,30.15,ENE,64,3.5,3.5,36,0.00,CLR,,0.00,WeatherDisplay:10.37,2013-05-01 14:26:00,
2013-05-01 10:31:00,63.9,37.1,30.15,ESE,118,4.6,4.6,37,0.00,CLR,,0.00,WeatherDisplay:10.37,2013-05-01 14:31:00,
2013-05-01 10:36:00,64.6,35.6,30.15,SSE,153,4.6,4.6,34,0.00,CLR,,0.00,WeatherDisplay:10.37,2013-05-01 14:36:00,
2013-05-01 10:41:00,64.9,38.7,30.15,East,94,5.0,5.0,38,0.00,CLR,,0.00,WeatherDisplay:10.37,2013-05-01 14:41:00,
2013-05-01 10:46:00,65.8,38.8,30.14,East,84,10.0,10.0,37,0.00,CLR,,0.00,WeatherDisplay:10.37,2013-05-01 14:46:00,
2013-05-01 10:51:00,65.3,37.6,30.14,ESE,105,6.9,6.9,36,0.00,CLR,,0.00,WeatherDisplay:10.37,2013-05-01 14:51:00,
2013-05-01 10:56:00,65.8,39.5,30.14,ENE,58,4.6,4.6,38,0.00,CLR,,0.00,WeatherDisplay:10.37,2013-05-01 14:56:00,
2013-05-01 11:01:00,66.7,37.4,30.14,East,101,8.1,8.1,34,0.00,CLR,,0.00,WeatherDisplay:10.37,2013-05-01 15:01:00,
2013-05-01 11:06:00,67.1,38.5,30.14,ESE,119,8.1,8.1,35,0.00,CLR,,0.00,WeatherDisplay:10.37,2013-05-01 15:06:00,
2013-05-01 11:11:00,67.4,37.3,30.14,SE,140,3.5,3.5,33,0.00,CLR,,0.00,WeatherDisplay:10.37,2013-05-01 15:11:00,
2013-05-01 11:16:00,67.1,39.9,30.14,East,80,7.0,7.0,37,0.00,CLR,,0.00,WeatherDisplay:10.37,2013-05-01 15:16:00,
2013-05-01 11:21:00,67.5,38.9,30.13,ENE,62,10.4,10.4,35,0.00,CLR,,0.00,WeatherDisplay:10.37,2013-05-01 15:21:00,
2013-05-01 11:26:00,67.3,40.1,30.13,NE,49,5.8,5.8,37,0.00,CLR,,0.00,WeatherDisplay:10.37,2013-05-01 15:26:00,
2013-05-01 11:31:00,67.8,41.3,30.13,ENE,58,8.1,8.1,38,0.00,CLR,,0.00,WeatherDisplay:10.37,2013-05-01 15:31:00,
2013-05-01 11:36:00,68.4,40.4,30.13,ESE,103,7.0,7.0,36,0.00,CLR,,0.00,WeatherDisplay:10.37,2013-05-01 15:36:00,
2013-05-01 11:41:00,68.5,41.2,30.13,ESE,105,11.0,11.0,37,0.00,CLR,,0.00,WeatherDisplay:10.37,2013-05-01 15:41:00,
2013-05-01 11:46:00,69.0,43.0,30.13,East,100,6.0,6.0,39,0.00,CLR,,0.00,WeatherDisplay:10.37,2013-05-01 15:46:00,
2013-05-01 11:51:00,68.9,42.9,30.13,East,98,4.6,4.6,39,0.00,CLR,,0.00,WeatherDisplay:10.37,2013-05-01 15:51:00,
2013-05-01 11:56:00,69.5,42.1,30.13,East,88,8.1,8.1,37,0.00,CLR,,0.00,WeatherDisplay:10.37,2013-05-01 15:56:00,
2013-05-01 12:01:00,69.0,39.4,30.13,ENE,75,8.1,8.1,34,0.00,CLR,,0.00,WeatherDisplay:10.37,2013-05-01 16:01:00,
2013-05-01 12:06:00,69.0,39.4,30.13,East,92,5.8,5.8,34,0.00,CLR,,0.00,WeatherDisplay:10.37,2013-05-01 16:06:00,
2013-05-01 12:11:00,69.6,42.2,30.12,NE,41,9.2,9.2,37,0.00,CLR,,0.00,WeatherDisplay:10.37,2013-05-01 16:11:00,
2013-05-01 12:16:00,69.6,39.2,30.12,ESE,119,9.2,9.2,33,0.00,CLR,,0.00,WeatherDisplay:10.37,2013-05-01 16:16:00,
2013-05-01 12:21:00,69.9,42.4,30.12,ENE,75,9.2,9.2,37,0.00,CLR,,0.00,WeatherDisplay:10.37,2013-05-01 16:21:00,
2013-05-01 12:26:00,69.4,39.8,30.12,East,90,5.8,5.8,34,0.00,CLR,,0.00,WeatherDisplay:10.37,2013-05-01 16:26:00,
2013-05-01 12:31:00,70.1,39.6,30.12,SE,127,8.1,8.1,33,0.00,CLR,,0.00,WeatherDisplay:10.37,2013-05-01 16:31:00,
2013-05-01 12:36:00,70.1,44.0,30.12,ESE,108,8.0,8.0,39,0.00,CLR,,0.00,WeatherDisplay:10.37,2013-05-01 16:36:00,
2013-05-01 12:41:00,70.0,41.8,30.11,ESE,103,9.0,9.0,36,0.00,CLR,,0.00,WeatherDisplay:10.37,2013-05-01 16:41:00,
2013-05-01 12:46:00,70.9,42.6,30.11,East,95,9.2,9.2,36,0.00,CLR,,0.00,WeatherDisplay:10.37,2013-05-01 16:46:00,
2013-05-01 12:51:00,70.9,43.3,30.11,East,98,10.0,10.0,37,0.00,CLR,,0.00,WeatherDisplay:10.37,2013-05-01 16:51:00,
2013-05-01 12:56:00,71.3,42.2,30.11,ESE,107,11.5,11.5,35,0.00,CLR,,0.00,WeatherDisplay:10.37,2013-05-01 16:56:00,
2013-05-01 13:01:00,71.7,41.0,30.11,ENE,63,10.4,10.4,33,0.00,CLR,,0.00,WeatherDisplay:10.37,2013-05-01 17:01:00,
2013-05-01 13:06:00,71.7,44.0,30.10,ENE,63,11.5,11.5,37,0.00,CLR,,0.00,WeatherDisplay:10.37,2013-05-01 17:06:00,
2013-05-01 13:11:00,71.6,44.6,30.10,East,95,5.8,5.8,38,0.00,CLR,,0.00,WeatherDisplay:10.37,2013-05-01 17:11:00,
2013-05-01 13:16:00,72.1,42.9,30.10,East,86,10.0,10.0,35,0.00,CLR,,0.00,WeatherDisplay:10.37,2013-05-01 17:16:00,
2013-05-01 13:21:00,71.8,41.1,30.10,East,93,12.7,12.7,33,0.00,CLR,,0.00,WeatherDisplay:10.37,2013-05-01 17:21:00,
2013-05-01 13:26:00,71.5,43.1,30.10,East,85,11.0,11.0,36,0.00,CLR,,0.00,WeatherDisplay:10.37,2013-05-01 17:26:00,
2013-05-01 13:31:00,72.5,42.5,30.10,ENE,78,16.1,16.1,34,0.00,CLR,,0.00,WeatherDisplay:10.37,2013-05-01 17:31:00,
2013-05-01 13:36:00,72.5,42.5,30.10,ENE,78,11.5,11.5,34,0.00,CLR,,0.00,WeatherDisplay:10.37,2013-05-01 17:36:00,
2013-05-01 13:41:00,73.0,43.0,30.10,East,82,16.1,16.1,34,0.00,CLR,,0.00,WeatherDisplay:10.37,2013-05-01 17:41:00,
2013-05-01 13:46:00,72.9,42.1,30.10,East,97,13.8,13.8,33,0.00,CLR,,0.00,WeatherDisplay:10.37,2013-05-01 17:46:00,
2013-05-01 13:51:00,73.0,41.4,30.10,SE,141,11.5,11.5,32,0.00,CLR,,0.00,WeatherDisplay:10.37,2013-05-01 17:51:00,
2013-05-01 13:56:00,72.7,41.9,30.09,East,81,10.0,10.0,33,0.00,CLR,,0.00,WeatherDisplay:10.37,2013-05-01 17:56:00,
2013-05-01 14:01:00,73.5,41.8,30.09,ENE,74,13.8,13.8,32,0.00,CLR,,0.00,WeatherDisplay:10.37,2013-05-01 18:01:00,
2013-05-01 14:06:00,72.9,40.5,30.09,East,91,5.0,5.0,31,0.00,CLR,,0.00,WeatherDisplay:10.37,2013-05-01 18:06:00,
2013-05-01 14:11:00,73.6,43.5,30.09,ESE,115,12.7,12.7,34,0.00,CLR,,0.00,WeatherDisplay:10.37,2013-05-01 18:11:00,
2013-05-01 14:16:00,73.7,43.6,30.09,ENE,64,10.4,10.4,34,0.00,CLR,,0.00,WeatherDisplay:10.37,2013-05-01 18:16:00,
2013-05-01 14:21:00,73.8,42.1,30.09,East,79,10.0,10.0,32,0.00,CLR,,0.00,WeatherDisplay:10.37,2013-05-01 18:21:00,
2013-05-01 14:26:00,74.0,43.1,30.09,NE,42,10.4,10.4,33,0.00,CLR,,0.00,WeatherDisplay:10.37,2013-05-01 18:26:00,
2013-05-01 14:31:00,73.2,43.9,30.08,ENE,77,9.0,9.0,35,0.00,CLR,,0.00,WeatherDisplay:10.37,2013-05-01 18:31:00,
2013-05-01 14:36:00,73.4,42.5,30.09,ENE,61,9.0,9.0,33,0.00,CLR,,0.00,WeatherDisplay:10.37,2013-05-01 18:36:00,
2013-05-01 14:41:00,73.9,46.0,30.09,NE,43,4.0,4.0,37,0.00,CLR,,0.00,WeatherDisplay:10.37,2013-05-01 18:41:00,
2013-05-01 14:46:00,74.5,41.9,30.09,ENE,69,11.5,11.5,31,0.00,CLR,,0.00,WeatherDisplay:10.37,2013-05-01 18:46:00,
2013-05-01 14:51:00,73.6,42.7,30.08,East,87,11.0,11.0,33,0.00,CLR,,0.00,WeatherDisplay:10.37,2013-05-01 18:51:00,
2013-05-01 14:56:00,74.6,42.0,30.09,East,86,12.7,12.7,31,0.00,CLR,,0.00,WeatherDisplay:10.37,2013-05-01 18:56:00,
2013-05-01 15:01:00,74.2,41.6,30.09,ENE,58,9.2,9.2,31,0.00,CLR,,0.00,WeatherDisplay:10.37,2013-05-01 19:01:00,
2013-05-01 15:06:00,73.8,41.3,30.08,ENE,60,8.1,8.1,31,0.00,CLR,,0.00,WeatherDisplay:10.37,2013-05-01 19:06:00,
2013-05-01 15:11:00,74.2,40.8,30.08,East,90,9.2,9.2,30,0.00,CLR,,0.00,WeatherDisplay:10.37,2013-05-01 19:11:00,
2013-05-01 15:16:00,74.7,42.0,30.08,NE,46,11.5,11.5,31,0.00,CLR,,0.00,WeatherDisplay:10.37,2013-05-01 19:16:00,
2013-05-01 15:21:00,74.2,41.6,30.08,East,82,10.4,10.4,31,0.00,CLR,,0.00,WeatherDisplay:10.37,2013-05-01 19:21:00,
2013-05-01 15:26:00,74.8,41.3,30.08,ESE,104,13.8,13.8,30,0.00,CLR,,0.00,WeatherDisplay:10.37,2013-05-01 19:26:00,
2013-05-01 15:31:00,74.6,41.1,30.08,ESE,107,8.1,8.1,30,0.00,CLR,,0.00,WeatherDisplay:10.37,2013-05-01 19:31:00,
2013-05-01 15:36:00,74.0,41.4,30.08,North,5,5.0,5.0,31,0.00,CLR,,0.00,WeatherDisplay:10.37,2013-05-01 19:36:00,
2013-05-01 15:41:00,74.1,45.4,30.08,ENE,69,9.0,9.0,36,0.00,CLR,,0.00,WeatherDisplay:10.37,2013-05-01 19:41:00,
2013-05-01 15:46:00,74.3,42.5,30.08,NE,53,10.4,10.4,32,0.00,CLR,,0.00,WeatherDisplay:10.37,2013-05-01 19:46:00,
2013-05-01 15:51:00,74.7,42.9,30.08,ESE,106,10.4,10.4,32,0.00,CLR,,0.00,WeatherDisplay:10.37,2013-05-01 19:51:00,
2013-05-01 15:56:00,74.6,45.1,30.08,NE,41,8.1,8.1,35,0.00,CLR,,0.00,WeatherDisplay:10.37,2013-05-01 19:56:00,
2013-05-01 16:01:00,74.4,45.0,30.07,NE,54,10.0,10.0,35,0.00,CLR,,0.00,WeatherDisplay:10.37,2013-05-01 20:01:00,
2013-05-01 16:06:00,74.6,44.4,30.07,ENE,69,8.1,8.1,34,0.00,CLR,,0.00,WeatherDisplay:10.37,2013-05-01 20:06:00,
2013-05-01 16:11:00,74.9,43.0,30.07,East,92,9.0,9.0,32,0.00,CLR,,0.00,WeatherDisplay:10.37,2013-05-01 20:11:00,
2013-05-01 16:17:00,74.7,42.0,30.07,NE,55,9.2,9.2,31,0.00,CLR,,0.00,WeatherDisplay:10.37,2013-05-01 20:17:00,
2013-05-01 16:22:00,74.5,42.7,30.07,ENE,67,6.9,6.9,32,0.00,CLR,,0.00,WeatherDisplay:10.37,2013-05-01 20:22:00,
2013-05-01 16:27:00,74.4,43.4,30.07,NE,55,9.2,9.2,33,0.00,CLR,,0.00,WeatherDisplay:10.37,2013-05-01 20:27:00,
2013-05-01 16:32:00,74.8,43.8,30.07,East,79,11.5,11.5,33,0.00,CLR,,0.00,WeatherDisplay:10.37,2013-05-01 20:32:00,
2013-05-01 16:37:00,74.6,40.2,30.07,NE,54,9.2,9.2,29,0.00,CLR,,0.00,WeatherDisplay:10.37,2013-05-01 20:37:00,
2013-05-01 16:42:00,74.5,44.3,30.07,NE,37,10.0,10.0,34,0.00,CLR,,0.00,WeatherDisplay:10.37,2013-05-01 20:42:00,
2013-05-01 16:47:00,74.3,44.1,30.07,NNE,32,4.0,4.0,34,0.00,CLR,,0.00,WeatherDisplay:10.37,2013-05-01 20:47:00,
2013-05-01 16:52:00,74.4,42.6,30.07,NE,56,11.5,11.5,32,0.00,CLR,,0.00,WeatherDisplay:10.37,2013-05-01 20:52:00,
2013-05-01 16:57:00,75.5,42.7,30.07,East,97,6.9,6.9,31,0.00,CLR,,0.00,WeatherDisplay:10.37,2013-05-01 20:57:00,
2013-05-01 17:02:00,75.5,43.6,30.06,East,99,10.0,10.0,32,0.00,CLR,,0.00,WeatherDisplay:10.37,2013-05-01 21:02:00,
2013-05-01 17:07:00,75.5,41.9,30.07,East,96,11.5,11.5,30,0.00,CLR,,0.00,WeatherDisplay:10.37,2013-05-01 21:07:00,
2013-05-01 17:12:00,75.1,43.2,30.07,ENE,59,8.1,8.1,32,0.00,CLR,,0.00,WeatherDisplay:10.37,2013-05-01 21:12:00,
2013-05-01 17:17:00,74.4,44.2,30.07,NE,37,5.8,5.8,34,0.00,CLR,,0.00,WeatherDisplay:10.37,2013-05-01 21:17:00,
2013-05-01 17:22:00,74.4,41.8,30.07,East,87,6.9,6.9,31,0.00,CLR,,0.00,WeatherDisplay:10.37,2013-05-01 21:22:00,
2013-05-01 17:27:00,75.0,42.3,30.07,East,93,7.0,7.0,31,0.00,CLR,,0.00,WeatherDisplay:10.37,2013-05-01 21:27:00,
2013-05-01 17:32:00,74.9,42.2,30.07,NE,56,5.8,5.8,31,0.00,CLR,,0.00,WeatherDisplay:10.37,2013-05-01 21:32:00,
2013-05-01 17:37:00,74.9,42.2,30.07,East,98,10.0,10.0,31,0.00,CLR,,0.00,WeatherDisplay:10.37,2013-05-01 21:37:00,
2013-05-01 17:42:00,74.8,43.0,30.07,East,98,6.9,6.9,32,0.00,CLR,,0.00,WeatherDisplay:10.37,2013-05-01 21:42:00,
2013-05-01 17:47:00,74.9,41.4,30.07,ENE,58,11.5,11.5,30,0.00,CLR,,0.00,WeatherDisplay:10.37,2013-05-01 21:47:00,
2013-05-01 17:52:00,74.6,42.0,30.07,ENE,61,9.2,9.2,31,0.00,CLR,,0.00,WeatherDisplay:10.37,2013-05-01 21:52:00,
2013-05-01 17:57:00,74.3,43.3,30.07,ENE,65,7.0,7.0,33,0.00,CLR,,0.00,WeatherDisplay:10.37,2013-05-01 21:57:00,
2013-05-01 18:02:00,74.6,40.2,30.07,ENE,65,10.4,10.4,29,0.00,CLR,,0.00,WeatherDisplay:10.37,2013-05-01 22:02:00,
2013-05-01 18:07:00,74.7,40.3,30.07,ENE,65,6.9,6.9,29,0.00,CLR,,0.00,WeatherDisplay:10.37,2013-05-01 22:07:00,
2013-05-01 18:12:00,74.4,39.2,30.07,ENE,62,8.1,8.1,28,0.00,CLR,,0.00,WeatherDisplay:10.37,2013-05-01 22:12:00,
2013-05-01 18:17:00,74.4,40.9,30.07,East,90,10.4,10.4,30,0.00,CLR,,0.00,WeatherDisplay:10.37,2013-05-01 22:17:00,
2013-05-01 18:22:00,74.3,39.1,30.08,ENE,71,9.2,9.2,28,0.00,CLR,,0.00,WeatherDisplay:10.37,2013-05-01 22:22:00,
2013-05-01 18:27:00,73.8,38.6,30.07,East,89,9.2,9.2,28,0.00,CLR,,0.00,WeatherDisplay:10.37,2013-05-01 22:27:00,
2013-05-01 18:32:00,73.5,37.5,30.07,NE,44,9.0,9.0,27,0.00,CLR,,0.00,WeatherDisplay:10.37,2013-05-01 22:32:00,
2013-05-01 18:37:00,73.6,37.5,30.07,ENE,72,6.9,6.9,27,0.00,CLR,,0.00,WeatherDisplay:10.37,2013-05-01 22:37:00,
2013-05-01 18:42:00,73.8,38.6,30.08,ENE,64,9.2,9.2,28,0.00,CLR,,0.00,WeatherDisplay:10.37,2013-05-01 22:42:00,
2013-05-01 18:47:00,73.4,36.4,30.08,ENE,69,9.2,9.2,26,0.00,CLR,,0.00,WeatherDisplay:10.37,2013-05-01 22:47:00,
2013-05-01 18:52:00,73.4,37.4,30.08,ENE,70,6.9,6.9,27,0.00,CLR,,0.00,WeatherDisplay:10.37,2013-05-01 22:52:00,
2013-05-01 18:57:00,73.4,38.3,30.08,East,90,6.0,6.0,28,0.00,CLR,,0.00,WeatherDisplay:10.37,2013-05-01 22:57:00,
2013-05-01 19:02:00,73.3,37.3,30.08,ESE,106,7.0,7.0,27,0.00,CLR,,0.00,WeatherDisplay:10.37,2013-05-01 23:02:00,
2013-05-01 19:07:00,72.9,36.9,30.08,ENE,69,5.0,5.0,27,0.00,CLR,,0.00,WeatherDisplay:10.37,2013-05-01 23:07:00,
2013-05-01 19:12:00,72.8,36.9,30.08,ENE,71,9.0,9.0,27,0.00,CLR,,0.00,WeatherDisplay:10.37,2013-05-01 23:12:00,
2013-05-01 19:17:00,72.6,35.7,30.08,ENE,65,9.2,9.2,26,0.00,CLR,,0.00,WeatherDisplay:10.37,2013-05-01 23:17:00,
2013-05-01 19:22:00,72.3,36.4,30.08,East,79,6.9,6.9,27,0.00,CLR,,0.00,WeatherDisplay:10.37,2013-05-01 23:22:00,
2013-05-01 19:27:00,72.0,36.2,30.08,ENE,67,9.2,9.2,27,0.00,CLR,,0.00,WeatherDisplay:10.37,2013-05-01 23:27:00,
2013-05-01 19:32:00,71.8,35.0,30.08,ENE,76,5.0,5.0,26,0.00,CLR,,0.00,WeatherDisplay:10.37,2013-05-01 23:32:00,
2013-05-01 19:37:00,71.6,34.9,30.08,East,85,7.0,7.0,26,0.00,CLR,,0.00,WeatherDisplay:10.37,2013-05-01 23:37:00,
2013-05-01 19:42:00,71.4,35.7,30.08,East,92,7.0,7.0,27,0.00,CLR,,0.00,WeatherDisplay:10.37,2013-05-01 23:42:00,
2013-05-01 19:47:00,71.0,36.2,30.08,ESE,102,5.0,5.0,28,0.00,CLR,,0.00,WeatherDisplay:10.37,2013-05-01 23:47:00,
2013-05-01 19:52:00,70.4,35.7,30.08,East,86,7.0,7.0,28,0.00,CLR,,0.00,WeatherDisplay:10.37,2013-05-01 23:52:00,
2013-05-01 19:57:00,70.2,35.5,30.08,East,82,5.8,5.8,28,0.00,CLR,,0.00,WeatherDisplay:10.37,2013-05-01 23:57:00,
2013-05-01 20:02:00,69.8,36.1,30.08,East,95,7.0,7.0,29,0.00,CLR,,0.00,WeatherDisplay:10.37,2013-05-02 00:02:00,
2013-05-01 20:07:00,69.4,34.9,30.08,ENE,71,6.9,6.9,28,0.00,CLR,,0.00,WeatherDisplay:10.37,2013-05-02 00:07:00,
2013-05-01 20:12:00,69.4,35.7,30.09,ENE,72,7.0,7.0,29,0.00,CLR,,0.00,WeatherDisplay:10.37,2013-05-02 00:12:00,
2013-05-01 20:17:00,69.2,34.7,30.09,East,92,6.0,6.0,28,0.00,CLR,,0.00,WeatherDisplay:10.37,2013-05-02 00:17:00,
2013-05-01 20:22:00,69.0,34.5,30.09,East,90,5.0,5.0,28,0.00,CLR,,0.00,WeatherDisplay:10.37,2013-05-02 00:22:00,
2013-05-01 20:27:00,68.6,35.1,30.09,ENE,76,3.5,3.5,29,0.00,CLR,,0.00,WeatherDisplay:10.37,2013-05-02 00:27:00,
2013-05-01 20:32:00,68.6,35.1,30.09,ENE,76,3.5,3.5,29,0.00,CLR,,0.00,WeatherDisplay:10.37,2013-05-02 00:32:00,
2013-05-01 20:37:00,68.4,34.9,30.09,East,81,3.5,3.5,29,0.00,CLR,,0.00,WeatherDisplay:10.37,2013-05-02 00:37:00,
2013-05-01 20:42:00,68.1,35.5,30.09,East,82,3.5,3.5,30,0.00,CLR,,0.00,WeatherDisplay:10.37,2013-05-02 00:42:00,
2013-05-01 20:47:00,67.7,36.0,30.09,East,82,3.5,3.5,31,0.00,CLR,,0.00,WeatherDisplay:10.37,2013-05-02 00:47:00,
2013-05-01 20:52:00,67.2,36.3,30.10,East,82,3.0,3.0,32,0.00,CLR,,0.00,WeatherDisplay:10.37,2013-05-02 00:52:00,
2013-05-01 20:57:00,66.6,35.8,30.09,East,97,4.6,4.6,32,0.00,CLR,,0.00,WeatherDisplay:10.37,2013-05-02 00:57:00,
2013-05-01 21:02:00,66.4,35.6,30.09,ESE,103,5.0,5.0,32,0.00,CLR,,0.00,WeatherDisplay:10.37,2013-05-02 01:02:00,
2013-05-01 21:07:00,65.7,37.3,30.10,ESE,102,4.0,4.0,35,0.00,CLR,,0.00,WeatherDisplay:10.37,2013-05-02 01:07:00,
2013-05-01 21:12:00,64.4,36.8,30.10,ESE,107,5.0,5.0,36,0.00,CLR,,0.00,WeatherDisplay:10.37,2013-05-02 01:12:00,
2013-05-01 21:17:00,63.5,37.4,30.10,ESE,107,4.0,4.0,38,0.00,CLR,,0.00,WeatherDisplay:10.37,2013-05-02 01:17:00,
2013-05-01 21:22:00,63.1,37.1,30.10,ESE,108,5.0,5.0,38,0.00,CLR,,0.00,WeatherDisplay:10.37,2013-05-02 01:22:00,
2013-05-01 21:27:00,63.6,36.1,30.10,ESE,108,3.5,3.5,36,0.00,CLR,,0.00,WeatherDisplay:10.37,2013-05-02 01:27:00,
2013-05-01 21:32:00,63.5,36.7,30.10,ESE,120,5.0,5.0,37,0.00,CLR,,0.00,WeatherDisplay:10.37,2013-05-02 01:32:00,
2013-05-01 21:37:00,62.7,36.7,30.11,ESE,118,5.0,5.0,38,0.00,CLR,,0.00,WeatherDisplay:10.37,2013-05-02 01:37:00,
2013-05-01 21:42:00,62.3,37.0,30.11,ESE,119,5.0,5.0,39,0.00,CLR,,0.00,WeatherDisplay:10.37,2013-05-02 01:42:00,
2013-05-01 21:47:00,62.0,37.4,30.11,ESE,117,5.0,5.0,40,0.00,CLR,,0.00,WeatherDisplay:10.37,2013-05-02 01:47:00,
2013-05-01 21:52:00,62.9,36.2,30.11,ESE,113,5.0,5.0,37,0.00,CLR,,0.00,WeatherDisplay:10.37,2013-05-02 01:52:00,
2013-05-01 21:57:00,63.8,35.6,30.11,ESE,109,4.0,4.0,35,0.00,CLR,,0.00,WeatherDisplay:10.37,2013-05-02 01:57:00,
2013-05-01 22:02:00,64.7,34.9,30.11,East,98,6.0,6.0,33,0.00,CLR,,0.00,WeatherDisplay:10.37,2013-05-02 02:02:00,
2013-05-01 22:07:00,64.9,35.1,30.11,ESE,111,4.6,4.6,33,0.00,CLR,,0.00,WeatherDisplay:10.37,2013-05-02 02:07:00,
2013-05-01 22:12:00,63.6,35.4,30.11,ESE,117,4.6,4.6,35,0.00,CLR,,0.00,WeatherDisplay:10.37,2013-05-02 02:12:00,
2013-05-01 22:17:00,62.4,35.8,30.11,ESE,117,3.5,3.5,37,0.00,CLR,,0.00,WeatherDisplay:10.37,2013-05-02 02:17:00,
2013-05-01 22:22:00,61.7,35.8,30.11,ESE,117,3.0,3.0,38,0.00,CLR,,0.00,WeatherDisplay:10.37,2013-05-02 02:22:00,
2013-05-01 22:27:00,62.0,34.7,30.11,ESE,117,3.5,3.5,36,0.00,CLR,,0.00,WeatherDisplay:10.37,2013-05-02 02:27:00,
2013-05-01 22:32:00,62.5,34.5,30.12,ESE,117,4.0,4.0,35,0.00,CLR,,0.00,WeatherDisplay:10.37,2013-05-02 02:32:00,
2013-05-01 22:37:00,62.8,34.0,30.12,ESE,104,3.5,3.5,34,0.00,CLR,,0.00,WeatherDisplay:10.37,2013-05-02 02:37:00,
2013-05-01 22:42:00,63.3,34.4,30.12,East,91,5.0,5.0,34,0.00,CLR,,0.00,WeatherDisplay:10.37,2013-05-02 02:42:00,
2013-05-01 22:47:00,63.4,34.5,30.11,ENE,78,3.5,3.5,34,0.00,CLR,,0.00,WeatherDisplay:10.37,2013-05-02 02:47:00,
2013-05-01 22:52:00,62.3,34.3,30.11,ENE,76,3.5,3.5,35,0.00,CLR,,0.00,WeatherDisplay:10.37,2013-05-02 02:52:00,
2013-05-01 22:57:00,62.4,33.6,30.11,ENE,71,3.5,3.5,34,0.00,CLR,,0.00,WeatherDisplay:10.37,2013-05-02 02:57:00,
2013-05-01 23:02:00,62.8,34.0,30.11,ENE,73,3.5,3.5,34,0.00,CLR,,0.00,WeatherDisplay:10.37,2013-05-02 03:02:00,
2013-05-01 23:07:00,63.0,34.2,30.11,ENE,73,3.5,3.5,34,0.00,CLR,,0.00,WeatherDisplay:10.37,2013-05-02 03:07:00,
2013-05-01 23:12:00,62.9,33.3,30.11,ENE,71,4.0,4.0,33,0.00,CLR,,0.00,WeatherDisplay:10.37,2013-05-02 03:12:00,
2013-05-01 23:17:00,62.6,33.8,30.11,ENE,70,3.5,3.5,34,0.00,CLR,,0.00,WeatherDisplay:10.37,2013-05-02 03:17:00,
2013-05-01 23:22:00,62.6,34.5,30.11,East,90,5.8,5.8,35,0.00,CLR,,0.00,WeatherDisplay:10.37,2013-05-02 03:22:00,
2013-05-01 23:27:00,62.3,35.0,30.11,ESE,117,5.8,5.8,36,0.00,CLR,,0.00,WeatherDisplay:10.37,2013-05-02 03:27:00,
2013-05-01 23:32:00,60.7,35.6,30.11,ESE,103,3.5,3.5,39,0.00,CLR,,0.00,WeatherDisplay:10.37,2013-05-02 03:32:00,
2013-05-01 23:37:00,60.4,34.7,30.11,ESE,104,5.0,5.0,38,0.00,CLR,,0.00,WeatherDisplay:10.37,2013-05-02 03:37:00,
2013-05-01 23:42:00,60.8,34.3,30.11,ESE,104,3.5,3.5,37,0.00,CLR,,0.00,WeatherDisplay:10.37,2013-05-02 03:42:00,
2013-05-01 23:47:00,61.0,34.5,30.11,ESE,104,4.0,4.0,37,0.00,CLR,,0.00,WeatherDisplay:10.37,2013-05-02 03:47:00,
2013-05-01 23:52:00,60.9,34.4,30.11,East,100,5.0,5.0,37,0.00,CLR,,0.00,WeatherDisplay:10.37,2013-05-02 03:52:00,
2013-05-01 23:57:00,61.0,34.5,30.12,ESE,107,4.0,4.0,37,0.00,CLR,,0.00,WeatherDisplay:10.37,2013-05-02 03:57:00,